Location: Barrio de Canyet
(41.4665°N, 2.2381°E)
Time: 20:33:15
(UTC+00:00)

Cosmos 1656 Rocket - Pass Details

Date: 09 April 2020
Orbit: 796 x 846 km, 71.1° (Epoch: 31 May)

Event Time Altitude Azimuth Distance (km) Brightness Sun altitude
Rises 19:05:13 0° 336° (NNW) 3,404 7.5 -8.0°
Reaches altitude 10° 19:07:41 10° 337° (NNW) 2,460 6.8 -8.5°
Maximum altitude 19:13:21 86° 66° (ENE) 839 3.7 -9.5°
Drops below altitude 10° 19:18:54 10° 156° (SSE) 2,412 5.7 -10.5°
Enters shadow 19:20:41 - 157° (SSE) 3,095 6.2 -10.8°
